Wind_Speed
15 14 12 11 9 8 7 6 6 5 5 5 4 3 2 1 1 2 3 4 5 5 6 6 7 8 9 9 10 10 11 11 12 13 13 14 14 15 15 16 16 16 16
16 15 13 11 10 8 7 7 6 6 5 5 4 3 2 1 2 2 3 5 5 6 6 7 8 8 9 10 11 11 12 12 13 13 14 14 15 15 16 16 16 17 17
17 16 14 12 11 9 8 7 7 6 5 4 4 3 2 2 2 3 4 5 5 6 6 7 8 9 10 11 11 12 12 13 13 14 14 15 16 16 17 17 17 18 18
18 17 15 13 12 10 9 8 7 7 6 5 4 3 2 2 2 3 4 5 5 6 7 7 8 9 10 11 12 12 13 14 14 15 16 16 17 17 18 18 19 19 19
19 18 16 14 13 11 10 9 8 7 7 6 5 4 3 3 3 3 4 5 6 6 7 8 9 10 10 11 12 13 14 14 15 16 16 17 18 19 19 20 20 20 20
20 19 17 15 14 12 11 10 9 8 7 7 6 5 4 4 4 4 5 6 6 7 8 9 10 10 11 12 12 13 14 15 16 16 17 18 19 20 20 21 21 22 22
21 20 18 17 15 14 13 11 10 9 8 7 7 6 5 5 5 5 6 7 7 8 9 9 10 11 12 13 14 14 15 16 17 18 19 20 20 21 22 22 23 23 24
23 21 19 18 17 15 14 13 11 10 9 9 8 7 7 6 6 6 7 8 8 9 10 10 11 12 13 14 15 16 16 17 18 19 20 21 22 23 23 24 24 24 25
24 22 21 20 18 17 16 14 13 12 11 10 9 9 8 8 8 8 8 9 9 10 11 12 12 13 14 15 16 17 18 19 20 21 22 23 24 24 25 25 26 26 26
26 24 23 21 20 19 17 16 15 13 12 11 11 10 10 10 10 10 10 10 11 11 12 13 14 15 15 16 17 18 20 21 22 23 23 24 25 26 26 27 27 28 28
28 26 24 23 22 21 19 18 16 15 14 13 13 12 12 12 12 12 12 12 13 13 13 14 15 16 17 18 19 20 21 22 23 24 25 26 27 28 28 29 29 30 30
31 29 27 25 24 23 21 20 18 17 16 15 15 14 14 14 14 14 14 14 15 15 15 15 16 17 18 19 20 22 23 24 25 26 27 28 29 30 30 31 32 32 32
34 32 30 28 27 25 24 22 21 20 19 18 17 16 16 16 16 16 16 16 17 17 17 17 18 19 20 21 22 23 24 26 27 28 29 30 31 32 33 33 33 34 34
36 34 32 30 29 28 26 25 23 22 21 20 19 19 19 19 19 19 19 19 19 19 19 19 20 21 22 23 24 25 26 27 29 30 31 32 33 34 35 35 35 35 35
38 36 34 33 32 30 29 27 26 25 24 23 22 22 21 21 21 21 21 21 21 21 21 22 22 23 24 25 26 27 28 30 31 32 33 34 35 36 36 36 36 36 36
39 38 36 35 34 33 32 30 29 28 27 26 25 25 24 24 24 24 24 24 24 23 24 24 25 25 26 27 28 29 30 32 33 34 35 36 37 38 38 38 37 37 37
41 40 39 38 37 36 35 34 33 31 30 29 29 28 28 27 27 27 27 27 27 26 26 27 27 28 29 30 31 31 32 33 35 36 37 38 39 39 39 39 39 38 38
43 42 41 40 39 38 38 37 36 35 34 33 32 31 31 31 30 30 30 30 29 29 29 30 30 31 32 32 33 34 35 36 37 38 39 40 41 40 40 40 40 39 39
44 43 43 42 42 41 41 40 40 38 37 37 36 35 34 34 33 33 33 33 32 32 32 33 33 34 34 35 36 36 37 38 39 40 41 42 42 41 41 41 41 40 40
46 45 44 44 44 44 43 43 42 41 40 40 39 38 38 37 36 36 36 36 35 35 35 36 36 36 36 37 38 39 40 40 41 42 42 43 43 42 42 42 42 41 41
48 47 46 45 46 45 45 44 44 44 43 43 42 42 41 40 39 39 38 38 38 38 38 38 38 38 39 40 41 41 41 42 42 43 43 44 43 43 42 42 42 42 41
50 49 48 47 47 47 47 47 46 46 46 46 45 44 43 43 42 42 41 41 40 40 40 40 41 41 41 42 43 44 43 42 42 43 44 44 44 43 43 43 43 42 42
51 50 50 49 49 49 49 49 49 49 48 48 47 46 45 45 44 44 43 43 42 42 42 42 43 43 43 44 45 46 45 44 43 42 42 43 43 44 44 43 43 42 42
52 51 50 50 50 50 50 51 51 50 50 49 48 48 47 47 46 46 45 45 44 44 44 44 44 45 45 45 45 45 46 46 46 44 42 42 43 43 43 42 42 42 42
52 52 52 51 51 51 51 51 51 51 51 51 50 50 49 48 48 48 47 46 46 45 45 45 46 46 46 46 46 46 46 46 46 45 44 43 42 43 42 42 42 42 41
51 51 51 52 52 52 51 51 51 51 51 51 51 50 50 50 50 49 48 48 47 47 47 47 47 47 47 47 47 47 46 46 45 45 44 43 43 42 42 42 42 42 41
Wind_Direction
223 222 221 219 218 218 218 221 225 227 225 222 219 219 221 244 324 340 344 342 340 340 340 338 337 335 335 333 332 332 330 329 330 330 329 328 328 327 326 326 327 327 327
224 223 221 220 219 218 218 224 230 229 225 223 222 222 229 270 317 335 337 335 336 338 339 338 336 334 334 333 332 332 331 331 331 331 331 330 330 329 327 326 326 325 324
226 225 224 222 222 221 222 227 230 229 225 223 221 226 247 280 317 332 333 333 335 338 339 338 336 335 335 334 332 331 331 331 331 332 332 331 331 329 328 326 324 323 322
227 227 226 224 223 224 226 227 227 226 224 224 223 233 252 282 315 328 332 333 335 338 338 338 337 336 335 335 334 333 332 332 332 332 332 331 330 328 326 325 323 322 320
229 229 228 225 224 225 226 226 225 223 224 227 229 236 254 282 305 319 329 333 335 336 339 340 338 336 336 336 334 333 333 333 331 330 329 329 328 326 324 323 322 320 319
229 229 227 226 225 224 225 225 223 224 227 230 234 241 258 280 297 311 323 328 332 334 336 337 336 335 335 335 334 333 333 331 330 328 327 327 325 324 323 322 320 319 317
228 228 227 227 225 224 224 225 226 227 229 233 238 245 259 275 290 305 317 323 327 330 331 332 332 333 333 332 332 331 331 329 327 326 325 324 323 322 321 320 318 317 316
228 227 227 228 227 225 224 225 226 229 232 236 241 248 258 271 285 299 309 316 321 325 327 328 329 330 331 330 329 329 328 326 325 324 323 322 321 320 319 317 316 315 314
229 229 228 229 228 227 226 226 227 230 235 240 245 252 262 272 282 292 301 308 315 319 322 323 324 326 327 327 327 326 325 324 323 322 321 320 319 318 317 316 315 314 313
231 230 230 230 230 228 227 229 231 234 238 243 248 255 264 272 280 287 295 301 308 313 316 318 320 321 322 322 323 323 322 321 320 320 319 318 317 316 315 314 313 312 311
232 232 231 231 230 230 230 231 234 237 241 246 250 256 263 270 277 283 289 296 302 306 309 313 315 316 317 318 319 319 319 318 317 317 316 316 315 314 313 313 312 311 310
233 233 233 232 231 231 232 234 237 240 243 247 252 256 262 268 274 279 285 291 296 300 303 306 309 311 312 313 314 314 314 314 314 314 314 313 312 312 311 311 310 309 309
232 233 233 233 233 233 234 236 239 242 246 249 253 257 262 266 271 276 280 286 291 295 298 301 304 306 307 308 309 310 310 311 311 311 311 311 311 310 310 309 309 308 307
233 234 234 234 234 235 236 239 242 245 248 252 256 259 263 266 270 274 278 282 286 290 293 295 298 300 302 304 305 306 307 307 308 308 309 309 309 309 308 308 307 307 307
233 234 235 235 236 237 238 240 243 247 250 254 257 260 263 266 269 272 276 279 283 286 289 291 294 296 297 299 301 303 304 305 305 306 306 307 307 307 306 306 306 306 305
234 235 235 235 236 238 240 242 244 248 252 255 257 260 263 267 269 272 275 278 281 284 286 289 291 293 294 296 298 300 302 303 303 304 304 305 305 305 305 305 305 304 304
234 235 236 236 237 238 241 243 245 248 252 255 258 261 264 267 269 272 274 277 279 282 285 287 288 290 292 294 296 298 300 301 301 302 303 303 304 304 303 304 304 303 303
235 236 237 238 238 240 242 244 246 249 252 255 258 261 264 267 269 271 274 277 279 281 283 286 287 289 291 293 295 297 299 300 300 301 302 302 303 303 302 303 303 303 303
237 238 239 239 240 241 243 245 247 250 252 256 258 261 264 267 269 271 274 276 279 281 282 284 286 288 290 292 294 296 297 299 300 301 301 302 302 301 301 302 302 302 302
237 238 240 241 242 243 244 246 248 250 253 255 258 260 263 266 269 271 274 276 278 280 282 284 285 287 289 291 292 294 296 297 298 299 300 301 300 300 300 301 301 301 300
238 240 241 242 243 244 246 246 248 250 253 255 257 259 262 265 268 270 273 275 277 279 281 283 284 286 288 289 291 293 295 296 297 298 299 299 299 299 299 300 300 300 299
239 240 242 243 245 246 247 248 249 251 252 254 256 259 261 264 267 269 272 274 277 278 280 281 283 285 287 289 291 292 293 295 296 297 298 298 298 298 298 299 299 298 299
240 242 243 244 245 247 248 248 250 251 253 254 255 257 260 263 266 269 271 273 275 277 279 281 282 284 287 289 290 292 293 294 294 294 295 296 296 296 297 298 297 298 298
239 241 242 244 245 247 248 249 250 252 252 253 255 257 260 263 266 268 270 272 274 276 278 280 281 284 286 288 289 290 292 293 294 295 294 293 294 295 295 295 295 296 297
240 241 243 245 246 248 249 250 251 251 252 253 254 256 259 262 265 267 269 271 273 275 277 279 281 283 285 287 288 290 291 292 293 294 294 293 293 293 293 294 295 295 296
241 242 243 245 247 248 249 250 251 252 253 254 255 258 260 262 264 266 268 270 272 274 275 278 280 282 284 286 288 289 290 291 292 292 293 293 293 292 293 294 294 296 297
Height
5896 5897 5898 5899 5899 5900 5901 5901 5902 5902 5902 5903 5903 5903 5902 5902 5902 5902 5901 5901 5900 5900 5899 5898 5897 5897 5896 5895 5894 5892 5891 5890 5888 5887 5885 5884 5882 5881 5879 5877 5875 5874 5872
5894 5895 5896 5897 5898 5899 5900 5900 5901 5901 5902 5902 5902 5902 5902 5902 5901 5901 5901 5900 5900 5899 5898 5898 5897 5896 5895 5894 5893 5891 5890 5889 5887 5886 5884 5882 5881 5879 5878 5876 5874 5872 5871
5892 5893 5895 5896 5897 5898 5899 5899 5900 5900 5901 5901 5901 5901 5901 5901 5901 5900 5900 5899 5899 5898 5898 5897 5896 5895 5894 5893 5892 5890 5889 5888 5886 5885 5883 5881 5879 5878 5876 5874 5873 5871 5869
5890 5891 5893 5894 5895 5896 5897 5898 5899 5899 5900 5900 5900 5900 5900 5900 5900 5900 5899 5899 5898 5897 5897 5896 5895 5894 5893 5892 5890 5889 5888 5886 5885 5883 5882 5880 5878 5876 5875 5873 5871 5869 5867
5888 5890 5891 5892 5894 5895 5896 5897 5897 5898 5899 5899 5899 5899 5899 5899 5899 5899 5898 5898 5897 5896 5896 5895 5894 5893 5892 5890 5889 5888 5886 5885 5883 5882 5880 5878 5876 5875 5873 5871 5869 5867 5865
5886 5887 5889 5890 5892 5893 5894 5895 5896 5897 5897 5898 5898 5898 5898 5898 5898 5898 5897 5897 5896 5895 5894 5893 5892 5891 5890 5889 5888 5886 5885 5883 5882 5880 5878 5876 5875 5873 5871 5869 5867 5865 5863
5883 5885 5887 5888 5890 5891 5892 5893 5894 5895 5896 5896 5897 5897 5897 5897 5897 5896 5896 5895 5895 5894 5893 5892 5891 5890 5889 5887 5886 5884 5883 5882 5880 5878 5876 5874 5872 5871 5869 5867 5865 5863 5860
5881 5883 5885 5886 5888 5889 5890 5891 5892 5893 5894 5894 5895 5895 5895 5895 5895 5895 5894 5894 5893 5892 5891 5890 5889 5888 5887 5885 5884 5882 5881 5879 5878 5876 5874 5872 5870 5868 5866 5864 5862 5859 5857
5878 5880 5882 5884 5885 5887 5888 5889 5890 5891 5892 5892 5893 5893 5893 5893 5893 5893 5892 5892 5891 5890 5889 5888 5887 5886 5884 5883 5882 5880 5879 5877 5875 5873 5871 5869 5867 5865 5863 5860 5858 5856 5854
5874 5877 5879 5881 5882 5884 5885 5887 5888 5889 5889 5890 5890 5891 5891 5891 5891 5891 5890 5890 5889 5888 5887 5886 5885 5884 5882 5881 5879 5878 5876 5874 5872 5870 5868 5866 5864 5862 5859 5857 5854 5852 5850
5870 5873 5875 5877 5879 5881 5882 5884 5885 5886 5887 5887 5888 5888 5888 5888 5888 5888 5888 5887 5887 5886 5885 5884 5882 5881 5880 5878 5877 5875 5873 5871 5869 5867 5865 5862 5860 5858 5855 5853 5850 5848 5845
5866 5869 5871 5873 5875 5877 5879 5880 5882 5883 5883 5884 5885 5885 5885 5885 5885 5885 5885 5884 5884 5883 5882 5881 5880 5878 5877 5875 5873 5872 5870 5868 5865 5863 5861 5859 5856 5854 5851 5848 5846 5843 5841
5861 5864 5867 5869 5871 5873 5875 5876 5878 5879 5880 5881 5881 5882 5882 5882 5882 5882 5882 5881 5881 5880 5879 5878 5876 5875 5873 5872 5870 5868 5866 5864 5861 5859 5857 5854 5852 5849 5846 5844 5841 5838 5835
5856 5859 5862 5865 5867 5869 5871 5872 5874 5875 5876 5877 5877 5878 5878 5879 5879 5878 5878 5878 5877 5876 5875 5874 5873 5871 5870 5868 5866 5864 5862 5859 5857 5855 5852 5849 5847 5844 5841 5838 5835 5833 5830
5851 5854 5857 5860 5862 5864 5866 5868 5869 5870 5872 5873 5873 5874 5874 5874 5874 5874 5874 5874 5873 5872 5871 5870 5869 5867 5865 5864 5861 5859 5857 5855 5852 5849 5847 5844 5841 5838 5835 5832 5829 5827 5824
5845 5848 5851 5854 5857 5859 5861 5863 5864 5865 5867 5868 5868 5869 5869 5870 5870 5870 5869 5869 5869 5868 5867 5865 5864 5862 5861 5859 5857 5854 5852 5849 5847 5844 5841 5838 5835 5832 5829 5826 5823 5820 5817
5839 5842 5845 5848 5851 5853 5855 5857 5858 5860 5861 5862 5863 5864 5864 5864 5865 5864 5864 5864 5863 5863 5861 5860 5859 5857 5855 5853 5851 5849 5846 5844 5841 5838 5835 5832 5828 5825 5822 5819 5816 5813 5810
5832 5836 5839 5842 5845 5847 5849 5851 5852 5854 5855 5856 5857 5858 5858 5859 5859 5859 5859 5858 5858 5857 5856 5854 5853 5851 5849 5847 5845 5843 5840 5837 5834 5831 5828 5824 5821 5818 5815 5812 5809 5806 5803
5825 5829 5832 5835 5837 5840 5842 5843 5845 5847 5848 5850 5851 5851 5852 5852 5852 5853 5852 5852 5851 5850 5849 5848 5847 5845 5843 5841 5839 5836 5833 5830 5827 5824 5820 5817 5813 5810 5807 5804 5801 5798 5795
5818 5821 5824 5827 5830 5832 5834 5836 5838 5840 5841 5842 5843 5844 5845 5845 5846 5846 5845 5845 5844 5844 5842 5841 5840 5838 5836 5834 5832 5829 5826 5823 5820 5816 5812 5809 5805 5802 5799 5796 5793 5789 5786
5810 5813 5817 5819 5822 5824 5826 5828 5830 5832 5834 5835 5836 5836 5837 5838 5838 5838 5838 5838 5837 5836 5835 5834 5832 5831 5829 5826 5824 5822 5819 5815 5812 5808 5804 5801 5797 5794 5790 5787 5784 5781 5778
5801 5805 5808 5811 5814 5816 5818 5820 5822 5824 5825 5826 5827 5828 5829 5830 5830 5830 5830 5830 5829 5828 5827 5826 5824 5823 5821 5818 5816 5813 5811 5809 5805 5800 5795 5792 5788 5785 5781 5778 5775 5772 5768
5793 5796 5799 5802 5805 5807 5809 5811 5813 5814 5816 5817 5818 5819 5820 5821 5821 5822 5822 5821 5821 5820 5819 5817 5816 5814 5813 5810 5807 5804 5802 5800 5797 5794 5788 5783 5779 5776 5772 5769 5766 5762 5759
5783 5787 5790 5793 5795 5798 5800 5802 5804 5805 5807 5808 5809 5810 5811 5812 5812 5813 5813 5812 5812 5811 5810 5809 5807 5805 5803 5801 5798 5795 5792 5789 5786 5785 5781 5776 5771 5767 5763 5760 5756 5753 5750
5773 5777 5780 5783 5786 5788 5790 5792 5794 5796 5797 5798 5800 5801 5802 5802 5803 5803 5803 5803 5802 5802 5801 5799 5798 5796 5794 5791 5789 5786 5783 5780 5776 5774 5771 5768 5763 5759 5755 5751 5747 5744 5740
5764 5767 5770 5773 5776 5778 5780 5782 5784 5786 5787 5788 5789 5790 5791 5792 5793 5793 5793 5793 5792 5792 5791 5790 5788 5786 5784 5782 5779 5776 5774 5771 5767 5764 5761 5757 5754 5750 5746 5742 5738 5735 5731